This is the latest recevied weather packets stored in our database for station/object K5BV. If no packets are shown the sender has not sent any weather packets the latest 1 day(s).
| Time | Temp. | Humidity | Pressure | Rain* | Wind** | Luminosity | Snow |
|---|---|---|---|---|---|---|---|
| 1778035955 | 25° C | 96% | 1008.4 hPa | 0 mm | - | - | - |
| 1778035355 | 25.56° C | 96% | 1008.3 hPa | 0 mm | - | - | - |
| 1778034755 | 25.56° C | 96% | 1008.2 hPa | 0 mm | - | - | - |
| 1778033555 | 25° C | 96% | 1007.9 hPa | 0 mm | - | - | - |
| 1778032355 | 25.56° C | 96% | 1007.7 hPa | 0 mm | - | - | - |
| 1778031755 | 25.56° C | 96% | 1007.6 hPa | 0 mm | - | - | - |
| 1778031156 | 25° C | 96% | 1007.4 hPa | 0 mm | - | - | - |
| 1778030555 | 25° C | 96% | 1007.2 hPa | 0 mm | - | - | - |
| 1778029955 | 25.56° C | 96% | 1007.2 hPa | 0 mm | - | - | - |
| 1778029355 | 25.56° C | 96% | 1007.1 hPa | 0 mm | - | - | - |
| 1778028757 | 25.56° C | 96% | 1006.8 hPa | 0 mm | - | - | - |
| 1778028286 | 25.56° C | 95% | 1006.9 hPa | 0 mm | - | - | - |
| 1778027555 | 25.56° C | 95% | 1006.9 hPa | 0 mm | - | - | - |
| 1778026955 | 25.56° C | 95% | 1006.9 hPa | 0 mm | - | - | - |
| 1778025156 | 25.56° C | 95% | 1006.9 hPa | 0 mm | - | - | - |
| 1778023356 | 25.56° C | 93% | 1006.6 hPa | 0 mm | - | - | - |
| 1778016758 | 26.11° C | 90% | 1007.3 hPa | 0 mm | - | - | - |
| 1778014956 | 26.67° C | 90% | 1007.7 hPa | 0 mm | - | - | - |
| 1778012556 | 26.11° C | 90% | 1008.4 hPa | 0 mm | - | - | - |
| 1778011956 | 26.67° C | 90% | 1008.7 hPa | 0 mm | - | - | - |
| 1778010157 | 26.67° C | 89% | 1008.6 hPa | 0 mm | - | - | - |
| 1778006557 | 25.56° C | 92% | 1009.1 hPa | 0 mm | - | - | - |
| 1778004157 | 25.56° C | 91% | 1009.4 hPa | 0 mm | - | - | - |
* Rain latest hour (hover to see other rain measurements)
** Current wind speed in m/s (hover to see current wind gust speed)